Regional Weather Roundup
Issued by NWS Northern Indiana

Home | Current Version | Previous Version | Text Only | Print | Product List | Glossary Off
Versions: 1 2 3 4 5 6 7 8 9 10 11 12 13 14 15 16 17 18 19 20 21 22 23 24 25 26 27 28 29 30 31 32 33 34 35 36 37 38 39 40 41 42 43 44 45 46 47 48 49 50

000
ASUS43 KIWX 171400
RWRIWX

KIWX WEATHER ROUNDUP
NATIONAL WEATHER SERVICE NORTHERN INDIANA
900 AM EST SUN DEC 17 2017

NOTE: "FAIR" INDICATES FEW OR NO CLOUDS BELOW 12,000 FEET WITH NO
SIGNIFICANT WEATHER AND/OR OBSTRUCTIONS TO VISIBILITY.

* THESE STATIONS ARE NOT UNDER NWS QUALITY CONTROL. THEY ALSO MAY NOT
  REPORT WEATHER SUCH AS PRECIPITATION OR FOG.

INZ001>027-171500-
NORTHERN INDIANA

CITY           SKY/WX    TMP DP  RH WIND       PRES   REMARKS
GARY*          CLOUDY    34  28  80 CALM      30.08S
SOUTH BEND     CLOUDY    28  27  96 E7        30.12R FOG     WCI  21
GOSHEN         CLOUDY    29  25  85 SE6       30.12R FOG     WCI  23
MONTICELLO*    MOCLDY    36  29  76 S5        30.08S
FORT WAYNE     CLOUDY    28  26  92 E6        30.14F FOG     WCI  22
PERU/GRISSOM   CLOUDY    35  31  88 S6        30.08F WCI  30

$$
INZ028>050-171500-
CENTRAL INDIANA

CITY           SKY/WX    TMP DP  RH WIND       PRES   REMARKS
LAFAYETTE      MOCLDY    37  31  78 S5        30.09S
KOKOMO*        CLOUDY    34  29  82 S7        30.10F WCI  28
MUNCIE*        CLOUDY    38  29  70 S8        30.12F
INDIANAPOLIS   CLOUDY    39  30  70 SE6       30.12F

$$
MIZ043>046-050>051-056>058-064>065-071>073-077>080-171500-
SOUTHWEST LOWER MICHIGAN

CITY           SKY/WX    TMP DP  RH WIND       PRES   REMARKS
BATTLE CREEK   CLOUDY    27  26  96 E9        30.13S FOG     WCI  18
BENTON HARBOR  MOCLDY    27  23  85 E8        30.11R FOG     WCI  19
COLDWATER*     CLOUDY    27  27 100 E7        30.13R FOG     WCI  20
HILLSDALE*     FOG       27  27 100 E7        30.13R VSB 1/4 WCI  19
HOLLAND        CLOUDY    23  21  92 E10       30.13F FOG     WCI  12
GRAND RAPIDS   FOG       23  22  96 E12       30.15R VSB 3/4 WCI  12
KALAMAZOO      CLOUDY    28  26  92 E8        30.13R FOG     WCI  20
STURGIS*       CLOUDY    29  28  96 SE6       30.13R FOG     WCI  23
THREE RIVERS*  CLOUDY    28  28  99 SE6       30.14R FOG     WCI  22

$$
OHZ001>008-015>018-024>025-171500-
NORTHWEST OHIO

CITY           SKY/WX    TMP DP  RH WIND       PRES   REMARKS
DEFIANCE       FOG       30  28  92 E8        30.18R VSB 3/4 WCI  22
FINDLAY        CLOUDY    29  25  85 CALM      30.16R FOG
TOLEDO EXPRESS CLOUDY    30  29  96 E3        30.16S
TOLEDO METCALF CLOUDY    31  28  89 NE5       30.18R FOG     WCI  26
LIMA           CLOUDY    35  29  78 S9        30.16R WCI  28

$$
AND FOR LAKE MICHIGAN COASTAL AND OPEN LAKE BUOY OBSERVATIONS

STATION/POSITION TEMP    WIND        PRES    VSBY  WAVE
                 AIR SEA DIR/SP/G                  HT/PER
                 (F)     (DEG/KT/KT) (MB)    (MI)  (FT/S)
CALUMET HARBOR    33     190/  3/  5 1017.9R
MICHIGAN CITY     33     130/  6/  8   N/A
BURNS HARBOR      35     170/  4/  8 1019.3R
SAINT JOSEPH      27      70/  2/  6 1019.3

$$
&&



USA.gov is the U.S. government's official web portal to all federal, state and local government web resources and services.